Clermont County, Batavia, OH

8:01 AM EST on December 16, 2019 (GMT -0500)
Clermont County, Batavia

Weather History for KI69 - October, 2019

Change the Weather History Date:

Friday, October 25, 2019

  Actual Average (KLUK) Record (KLUK)
Temperature  
Mean Temperature 54 °F -  
Max Temperature 59 °F 62 °F 84 °F (1963)
Min Temperature 49 °F 43 °F 26 °F (1960)
Degree Days  
Heating Degree Days 11    
Growing Degree Days 4 (Base 50)    
Moisture  
Dew Point 47 °F    
Average Humidity 81    
Maximum Humidity 90    
Minimum Humidity 65    
Precipitation  
Precipitation 0.00 in - - ()
Sea Level Pressure  
Sea Level Pressure 30.26 in    
Wind  
Wind Speed 1 mph (NNE)    
Max Wind Speed 4 mph    
Max Gust Speed -    
Visibility 10 miles    
Events      
Averages and records for this station are not official NWS values.
T = Trace of Precipitation, MM = Missing Value Source: NWS Daily Summary

Daily Weather History Graph

Daily Weather History Graph

Search for Another Location

Airport or City:

Astronomy

Oct. 25, 2019 Rise Set
Actual Time 7:56 AM EDT 6:44 PM EDT
Civil Twilight 7:29 AM EDT 7:12 PM EDT
Nautical Twilight 6:57 AM EDT 7:43 PM EDT
Astronomical Twilight 6:26 AM EDT 8:14 PM EDT
Moon 4:40 AM EDT (10/25) 5:44 PM EDT (10/25)
Length of Visible Light 11h 42m
Length of Day
10h 48m
Waning Crescent, 9% of the Moon is Illuminated
Oct 25
Waning Crescent
Oct 27
New
Nov 4
First Quarter
Nov 12
Full
Nov 19
Last Quarter

Hourly Weather History & Observations

Time (EDT) Temp. Dew Point Humidity Pressure Visibility Wind Dir Wind Speed Gust Speed Precip Events Conditions
12:35 AM 51.4 °F 45.1 °F 79% 30.29 in 10.0 mi NNW 3.5 mph - N/A   Clear
12:59 AM 51.3 °F 45.1 °F 80% 30.28 in 10.0 mi Calm Calm - N/A   Clear
1:17 AM 52.0 °F 45.0 °F 77% 30.28 in 10.0 mi North 3.5 mph - N/A   Clear
1:36 AM 52.0 °F 45.0 °F 77% 30.28 in 10.0 mi Calm Calm - N/A   Clear
1:55 AM 51.6 °F 44.8 °F 77% 30.28 in 10.0 mi Calm Calm - N/A   Clear
2:15 AM 50.9 °F 45.0 °F 80% 30.28 in 10.0 mi Calm Calm - N/A   Scattered Clouds
2:39 AM 51.1 °F 45.1 °F 80% 30.28 in 10.0 mi North 3.5 mph - N/A   Scattered Clouds
2:57 AM 50.9 °F 45.5 °F 82% 30.27 in 10.0 mi NNE 3.5 mph - N/A   Scattered Clouds
3:15 AM 50.9 °F 45.1 °F 81% 30.27 in 10.0 mi Calm Calm - N/A   Clear
3:35 AM 50.4 °F 45.0 °F 82% 30.27 in 10.0 mi Calm Calm - N/A   Clear
3:55 AM 49.1 °F 45.0 °F 86% 30.27 in 10.0 mi Calm Calm - N/A   Clear
4:19 AM 49.1 °F 45.0 °F 86% 30.26 in 10.0 mi Calm Calm - N/A   Clear
4:37 AM 49.1 °F 45.5 °F 87% 30.27 in 10.0 mi NNW 3.5 mph - N/A   Mostly Cloudy
4:55 AM 50.0 °F 45.1 °F 83% 30.27 in 10.0 mi Calm Calm - N/A   Overcast
5:16 AM 49.5 °F 45.7 °F 87% 30.28 in 10.0 mi Calm Calm - N/A   Overcast
5:35 AM 49.1 °F 46.0 °F 89% 30.29 in 10.0 mi Calm Calm - N/A   Overcast
5:59 AM 49.6 °F 45.9 °F 87% 30.29 in 10.0 mi Calm Calm - N/A   Overcast
6:17 AM 49.5 °F 45.7 °F 87% 30.29 in 10.0 mi Calm Calm - N/A   Overcast
6:35 AM 50.0 °F 45.7 °F 85% 30.29 in 10.0 mi Calm Calm - N/A   Overcast
6:55 AM 49.5 °F 45.5 °F 86% 30.28 in 10.0 mi Calm Calm - N/A   Scattered Clouds
7:15 AM 49.3 °F 45.5 °F 87% 30.28 in 10.0 mi Calm Calm - N/A   Scattered Clouds
7:39 AM 49.5 °F 45.5 °F 86% 30.29 in 10.0 mi Calm Calm - N/A   Mostly Cloudy
7:57 AM 49.5 °F 45.9 °F 87% 30.29 in 10.0 mi Calm Calm - N/A   Overcast
8:15 AM 49.5 °F 45.7 °F 87% 30.29 in 10.0 mi NNE 3.5 mph - N/A   Overcast
8:35 AM 49.1 °F 46.2 °F 90% 30.29 in 10.0 mi Calm Calm - N/A   Mostly Cloudy
8:55 AM 49.5 °F 46.4 °F 89% 30.29 in 10.0 mi Calm Calm - N/A   Mostly Cloudy
9:19 AM 50.2 °F 45.9 °F 85% 30.30 in 10.0 mi Calm Calm - N/A   Scattered Clouds
9:55 AM 50.5 °F 46.4 °F 86% 30.30 in 10.0 mi Calm Calm - N/A   Mostly Cloudy
10:15 AM 50.9 °F 46.8 °F 86% 30.30 in 10.0 mi Calm Calm - N/A   Mostly Cloudy
10:35 AM 51.3 °F 46.9 °F 85% 30.30 in 10.0 mi Calm Calm - N/A   Mostly Cloudy
11:17 AM 52.9 °F 47.7 °F 82% 30.29 in 10.0 mi Calm Calm - N/A   Overcast
11:35 AM 52.9 °F 47.5 °F 82% 30.30 in 10.0 mi Calm Calm - N/A   Overcast
11:55 AM 53.6 °F 47.3 °F 79% 30.29 in 10.0 mi Calm Calm - N/A   Overcast
12:15 PM 54.1 °F 47.7 °F 79% 30.29 in 10.0 mi Calm Calm - N/A   Mostly Cloudy
12:38 PM 54.5 °F 47.5 °F 77% 30.28 in 10.0 mi Calm Calm - N/A   Mostly Cloudy
12:57 PM 54.9 °F 47.7 °F 77% 30.27 in 10.0 mi Calm Calm - N/A   Scattered Clouds
1:15 PM 55.2 °F 47.7 °F 76% 30.27 in 10.0 mi Calm Calm - N/A   Scattered Clouds
1:35 PM 55.9 °F 48.6 °F 76% 30.26 in 10.0 mi Calm Calm - N/A   Mostly Cloudy
1:55 PM 56.3 °F 48.9 °F 76% 30.25 in 10.0 mi Calm Calm - N/A   Overcast
2:18 PM 56.7 °F 48.6 °F 74% 30.25 in 10.0 mi Calm Calm - N/A   Scattered Clouds
2:37 PM 57.2 °F 48.7 °F 73% 30.24 in 10.0 mi Calm Calm - N/A   Mostly Cloudy
2:55 PM 57.6 °F 48.6 °F 72% 30.24 in 10.0 mi Calm Calm - N/A   Mostly Cloudy
3:15 PM 58.3 °F 49.3 °F 72% 30.23 in 10.0 mi Calm Calm - N/A   Scattered Clouds
3:35 PM 58.6 °F 49.1 °F 71% 30.23 in 10.0 mi Calm Calm - N/A   Scattered Clouds
3:58 PM 59.0 °F 48.4 °F 68% 30.22 in 10.0 mi Calm Calm - N/A   Scattered Clouds
4:35 PM 59.0 °F 47.1 °F 65% 30.22 in 10.0 mi Calm Calm - N/A   Mostly Cloudy
4:55 PM 59.0 °F 47.8 °F 66% 30.22 in 10.0 mi Calm Calm - N/A   Scattered Clouds
5:15 PM 59.0 °F 48.4 °F 68% 30.22 in 10.0 mi Calm Calm - N/A   Mostly Cloudy
5:38 PM 58.5 °F 48.7 °F 70% 30.22 in 10.0 mi North 3.5 mph - N/A   Mostly Cloudy
6:16 PM 57.9 °F 48.6 °F 71% 30.22 in 10.0 mi Calm Calm - N/A   Overcast
6:35 PM 57.2 °F 49.1 °F 74% 30.23 in 10.0 mi Calm Calm - N/A   Overcast
6:55 PM 56.7 °F 49.1 °F 76% 30.23 in 10.0 mi Calm Calm - N/A   Overcast
7:18 PM 56.1 °F 49.1 °F 77% 30.23 in 10.0 mi Calm Calm - N/A   Scattered Clouds
7:36 PM 55.4 °F 49.1 °F 79% 30.24 in 10.0 mi Calm Calm - N/A   Clear
7:55 PM 54.3 °F 49.5 °F 84% 30.24 in 10.0 mi Calm Calm - N/A   Clear
8:15 PM 55.0 °F 49.3 °F 81% 30.24 in 10.0 mi Calm Calm - N/A   Clear
8:35 PM 54.1 °F 49.5 °F 84% 30.23 in 10.0 mi Calm Calm - N/A   Clear
8:58 PM 53.4 °F 49.5 °F 86% 30.23 in 10.0 mi Calm Calm - N/A   Clear
9:16 PM 54.0 °F 49.1 °F 84% 30.23 in 10.0 mi Calm Calm - N/A   Clear
9:35 PM 54.0 °F 49.3 °F 84% 30.22 in 10.0 mi Calm Calm - N/A   Clear
9:55 PM 53.2 °F 49.1 °F 86% 30.22 in 10.0 mi Calm Calm - N/A   Clear
10:15 PM 52.9 °F 49.1 °F 87% 30.22 in 10.0 mi Calm Calm - N/A   Clear
10:38 PM 53.1 °F 49.1 °F 86% 30.23 in 10.0 mi Calm Calm - N/A   Clear
10:56 PM 52.9 °F 48.7 °F 86% 30.22 in 10.0 mi SE 3.5 mph - N/A   Clear
11:15 PM 52.7 °F 48.7 °F 86% 30.21 in 10.0 mi Calm Calm - N/A   Clear
11:59 PM 53.1 °F 48.2 °F 84% 30.21 in 10.0 mi ESE 3.5 mph - N/A   Clear